Regional Weather Roundup
Issued by NWS

Home | Current Version | Previous Version | Graphics & Text | Print | Product List | Glossary Off
Versions: 1 2 3 4 5 6 7 8 9 10 11 12 13 14 15 16 17 18 19 20 21 22 23 24 25 26 27 28 29 30 31 32 33 34 35 36 37 38 39 40 41 42 43 44 45 46 47 48 49 50

000
ASUS43 KMKX 300710
RWRWI

WISCONSIN REGIONAL WEATHER ROUNDUP
NATIONAL WEATHER SERVICE MILWAUKEE/SULLIVAN WI
100 AM CST FRI JAN 30 2015

NOTE: "FAIR" INDICATES FEW OR NO CLOUDS BELOW 12,000 FEET WITH NO
SIGNIFICANT WEATHER AND/OR OBSTRUCTIONS TO VISIBILITY.

WIZ001-002-006>008-014>016-023>028-300800-
NORTHWEST WISCONSIN

CITY           SKY/WX    TMP DP  RH WIND       PRES   REMARKS
SUPERIOR ARPT  PTCLDY     5  -1  78 W6        30.54S WCI  -6
ASHLAND        CLOUDY    14   5  67 N9        30.49S WCI   2
HAYWARD        MOCLDY     6   0  76 NW3       30.47R
SIREN          CLEAR      5   0  77 NW3       30.54R
CUMBERLAND     CLEAR      5   0  78 NW6       30.49R WCI  -6
RICE LAKE      CLEAR      6   1  78 NW3       30.50S
CHETEK         CLEAR      6   0  77 CALM      30.49S
LADYSMITH      CLOUDY    11   4  73 NW7       30.47R WCI   0
EAU CLAIRE     CLEAR     10   1  67 NW7       30.50R WCI  -1
MENOMONIE      PTCLDY    11   3  70 NW7       30.52S WCI   0
NEW RICHMOND   PTCLDY     8   3  80 NW6       30.54R WCI  -3
OSCEOLA        CLEAR     11   4  74 NW6       30.57S WCI   2
$$

WIZ003>005-009-010-017-018-300800-
NORTH CENTRAL WISCONSIN

CITY           SKY/WX    TMP DP  RH WIND       PRES   REMARKS
MANITOWISH WTR CLOUDY    11   5  76 N6        30.37R WCI   2
ARBOR VITAE    CLOUDY    14   7  72 N12G21    30.36S WCI   0
WOODRUFF       CLOUDY    14   7  72 N12G21    30.36S WCI   0
RHINELANDER    CLOUDY    13   3  64 NW9G18    30.36R WCI   1
EAGLE RIVER    CLOUDY    12   3  69 N16       30.35R WCI  -5
LAND O LAKES   CLOUDY    12   5  74 N9        30.35S WCI  -1
PHILLIPS       CLOUDY    12   4  69 N5        30.39S WCI   4
TOMAHAWK       CLOUDY    14   6  69 CALM      30.38S
MEDFORD        CLOUDY    14   6  70 NW10      30.39S WCI   1
MERRILL        CLOUDY    15   6  66 N7        30.39R WCI   6
$$

WIZ029-030-035-036-043>047-300800-
CENTRAL WISCONSIN

CITY           SKY/WX    TMP DP  RH WIND       PRES   REMARKS
WAUSAU         CLOUDY    17   4  56 N9        30.38R WCI   6
MOSINEE        CLOUDY    18   9  68 NW8       30.40R WCI   7
MARSHFIELD     CLOUDY    16   5  62 NW14      30.41R WCI   2
STEVENS POINT  CLOUDY    16   4  58 NW8       30.41R WCI   6
WAUPACA        CLEAR     20   5  52 NW8       30.41R WCI  11
WAUTOMA        CLOUDY    21   8  57 N8        30.42R WCI  11
WISC RAPIDS    CLOUDY    19   8  62 N12       30.43R WCI   7
CAMP DOUGLAS   CLOUDY    19   9  65 NW10      30.45R WCI   8
$$

WIZ011>013-019>022-031-037>040-048>050-300800-
NORTHEAST WISCONSIN

CITY           SKY/WX    TMP DP  RH WIND       PRES   REMARKS
ANTIGO         CLOUDY    14   6  73 NW10      30.35R WCI   1
SHAWANO        CLOUDY    22   7  53 N10G17    30.40R WCI  11
OCONTO         CLOUDY    17   5  59 MISG      30.39R
STURGEON BAY   CLOUDY    16   7  67 N13       30.38R WCI   2
GREEN BAY      MOCLDY    20   9  62 N13       30.39R WCI   7
MANITOWOC      PTCLDY    18   9  68 N10       30.37R WCI   6
APPLETON       MOCLDY    19  10  68 NW10      30.38R WCI   8
CLINTONVILLE   CLOUDY    21  10  63 N9        30.39R WCI  11
OSHKOSH        PTCLDY    20   8  60 NW10      30.38R WCI   9
$$

WIZ032>034-041-042-053>061-300800-
SOUTHWEST WISCONSIN

CITY           SKY/WX    TMP DP  RH WIND       PRES   REMARKS
LA CROSSE      PTCLDY    18   8  65 NW13      30.50R WCI   5
SPARTA         CLOUDY    18   8  65 NW8       30.48R WCI   7
VIROQUA        CLEAR     17   8  70 NW12G17   30.43R WCI   4
BOSCOBEL       MOCLDY    23   8  52 N9        30.47R WCI  13
PRAIRIE DU CHI CLEAR     22  10  58 N6        30.48R WCI  14
PLATTEVILLE    MOCLDY    23  13  66 NW9       30.42R WCI  13
$$

WIZ056-057-062-063-064-067-068-300800-
SOUTH CENTRAL WISCONSIN

CITY           SKY/WX    TMP DP  RH WIND       PRES   REMARKS
REEDSBURG      FAIR      19   8  61 NW10      30.43R WCI   7
BARABOO/DELLS  FAIR      19   8  61 NW10G16   30.41R WCI   8
LONE ROCK      CLOUDY    24  12  60 N12       30.44R WCI  13
MINERAL POINT  PTCLDY    23  12  63 NW8       30.40R WCI  14
MADISON        CLOUDY    22  11  62 NW12      30.39R WCI  10
MIDDLETON      MOCLDY    24  12  61 N14       30.40R WCI  12
WATERTOWN      CLOUDY    23  11  59 N12       30.37R WCI  12
MONROE         CLOUDY    27  18  69 N9G17     30.37R WCI  17
JANESVILLE     MOCLDY    28  18  64 N9        30.38R WCI  20
$$

WIZ051-052-058>065-066-070>072-300800-
SOUTHEAST WISCONSIN

CITY           SKY/WX    TMP DP  RH WIND       PRES   REMARKS
MILWAUKEE      CLOUDY    25   7  46 N10       30.36R WCI  15
WAUKESHA       CLOUDY    21  10  63 N12       30.37R WCI   9
MILWAUKEE/TIMM CLOUDY    25  10  54 N12       30.37R WCI  14
RACINE         CLOUDY    25   8  48 N14G30    30.37R WCI  13
BURLINGTON     CLOUDY    23  10  55 N8        30.37R WCI  14
KENOSHA        CLOUDY    26   9  48 N13       30.35R WCI  15
FOND DU LAC    CLEAR     20   7  57 N9        30.38R WCI   9
SHEBOYGAN      CLOUDY    22  12  65 N8        30.36R WCI  12
WEST BEND      CLOUDY    23  12  63 NW12G21   30.36R WCI  12
JUNEAU         CLOUDY    22   9  56 N12G17    30.39R WCI  11
$$

LSZ147-162-300800-
LAKE SUPERIOR

STATION/POSITION TIME  TEMP    WIND        PRES    WAVE
                       AIR SEA DIR/SP/G            HT/PER
                 (UTC) (F)     (DEG/KT/KT) (MB)    (FT/S)
DEVILS ISLAND    0700   13     350/  9/ 11 1034.5R
PORT WING        0600   15     340/  9/ 12 1032.8
SAXON HARBOR     0600   17     340/ 11/ 16 1032.2R
$$

LMZ867-665-643>646-300800-
LAKE MICHIGAN

STATION/POSITION TIME  TEMP    WIND        PRES    WAVE
                       AIR SEA DIR/SP/G            HT/PER
                 (UTC) (F)     (DEG/KT/KT) (MB)    (FT/S)
NORTHPORT PIER   0607   18     330/ 24     1027.8R
SISTER BAY       0613   16     350/ 26/ 32   N/A
KEWAUNEE LAKESHO 0600   18     350/  7/ 11 1027.1R
SHEBOYGAN LAKESH 0700   22      10/ 24/ 27 1029.4R
PORT WASHINGTON  0600   25      10/  8/ 17 1028.4R
MILWAUKEE LAKESH 0600   26     350/ 14/ 19   N/A
KENOSHA   LAKESH 0700   26     350/ 22/ 25 1027.4R
$$

TC  - TEMPERATURE IN CELSIUS
VSB - VISIBILITY IN STATUTE MILES
WCI - WIND CHILL INDEX
HX  - HEAT INDEX




USA.gov is the U.S. government's official web portal to all federal, state and local government web resources and services.